YBR YMMB-YSWG

Flight info

Callsign YBR
Flight time 2h 0m
Altitude 13000
Route YMMB/35R MB W188 TEMIS W696 LUTVU W465 AY W638 WG
Aircraft DA42/L-SBDGRY/S

Departure

Time 2026-05-04 09:51
Airport Melbourne Moorabbin Airport (YMMB)

Arrival

Time 2026-05-04 11:51
Airport Wagga Wagga Airport (YSWG)
Time Latitude Longitude Altitude Speed Heading
2026-05-04 09:25 -37.97451 145.09400 52 ft 0 kts 271°
2026-05-04 09:34 -37.97467 145.09379 51 ft 0 kts 183°
2026-05-04 09:34 -37.97472 145.09380 51 ft 5 kts 144°
2026-05-04 09:34 -37.97421 145.09386 51 ft 10 kts 26°
2026-05-04 09:34 -37.97415 145.09471 47 ft 14 kts 100°
2026-05-04 09:35 -37.97428 145.09554 42 ft 2 kts 77°
2026-05-04 09:35 -37.97406 145.09563 42 ft 3 kts
2026-05-04 09:35 -37.97395 145.09575 42 ft 3 kts 90°
2026-05-04 09:35 -37.97393 145.09581 42 ft 0 kts 28°
2026-05-04 09:40 -37.97386 145.09614 41 ft 11 kts 131°
2026-05-04 09:41 -37.97432 145.09620 40 ft 7 kts 172°
2026-05-04 09:42 -37.97621 145.09636 35 ft 13 kts 176°
2026-05-04 09:43 -37.97687 145.09642 36 ft 12 kts 178°
2026-05-04 09:43 -37.97804 145.09651 36 ft 20 kts 172°
2026-05-04 09:43 -37.97917 145.09660 35 ft 13 kts 167°
2026-05-04 09:43 -37.97992 145.09668 35 ft 9 kts 176°
2026-05-04 09:44 -37.98026 145.09670 36 ft 3 kts 178°
2026-05-04 09:44 -37.98107 145.09678 38 ft 17 kts 174°
2026-05-04 09:44 -37.98218 145.09687 39 ft 15 kts 171°
2026-05-04 09:46 -37.98372 145.09959 37 ft 0 kts 84°
2026-05-04 09:49 -37.98342 145.10031 35 ft 5 kts 352°
2026-05-04 09:49 -37.98235 145.10021 37 ft 34 kts 356°
2026-05-04 09:49 -37.97829 145.09985 102 ft 72 kts 355°
2026-05-04 09:51 -37.95323 145.10129 2016 ft 72 kts 350°
2026-05-04 09:51 -37.94814 145.10189 2378 ft 76 kts 355°
2026-05-04 09:51 -37.94300 145.10532 2735 ft 91 kts 18°
2026-05-04 09:51 -37.93791 145.11030 3092 ft 93 kts 17°
2026-05-04 09:52 -37.93272 145.11542 3435 ft 96 kts 19°
2026-05-04 09:52 -37.92742 145.12071 3788 ft 98 kts 19°
2026-05-04 09:52 -37.92211 145.12603 4137 ft 100 kts 21°
2026-05-04 09:52 -37.91663 145.13153 4495 ft 101 kts 21°
2026-05-04 09:53 -37.91109 145.13708 4830 ft 103 kts 21°
2026-05-04 09:53 -37.90504 145.14304 5002 ft 125 kts 24°
2026-05-04 09:53 -37.89740 145.15062 5010 ft 152 kts 26°
2026-05-04 09:53 -37.88871 145.15932 5017 ft 166 kts 27°
2026-05-04 09:54 -37.87944 145.16865 5011 ft 174 kts 27°
2026-05-04 09:54 -37.86979 145.17836 4889 ft 180 kts 28°
2026-05-04 09:54 -37.86070 145.18779 4660 ft 150 kts 27°
2026-05-04 09:54 -37.85349 145.19519 4402 ft 121 kts 22°
2026-05-04 09:55 -37.84707 145.20146 4172 ft 113 kts 21°
2026-05-04 09:55 -37.84106 145.20741 3987 ft 103 kts 18°
2026-05-04 09:55 -37.83599 145.21248 3976 ft 92 kts 13°
2026-05-04 09:55 -37.83031 145.21780 4046 ft 111 kts 20°
2026-05-04 09:56 -37.82437 145.22387 4443 ft 109 kts 22°
2026-05-04 09:56 -37.81839 145.22990 4787 ft 111 kts 22°
2026-05-04 09:56 -37.81234 145.23600 5052 ft 112 kts 22°
2026-05-04 09:56 -37.80626 145.24205 5331 ft 112 kts 22°
2026-05-04 09:57 -37.80043 145.24791 5706 ft 102 kts 21°
2026-05-04 09:57 -37.79486 145.25343 5993 ft 103 kts 21°
2026-05-04 09:57 -37.78847 145.25968 6023 ft 129 kts 25°
2026-05-04 09:57 -37.78089 145.26725 6023 ft 146 kts 26°
2026-05-04 09:58 -37.77251 145.27557 5929 ft 161 kts 27°
2026-05-04 09:58 -37.76341 145.28463 5802 ft 171 kts 27°
2026-05-04 09:58 -37.75431 145.29379 5687 ft 164 kts 28°
2026-05-04 10:00 -37.70068 145.34731 5033 ft 130 kts 24°
2026-05-04 10:00 -37.69362 145.35434 5026 ft 130 kts 24°
2026-05-04 10:02 -37.64444 145.40317 5038 ft 133 kts 24°
2026-05-04 10:04 -37.59407 145.45335 5685 ft 104 kts 21°
2026-05-04 10:04 -37.58872 145.45863 6083 ft 95 kts 20°
2026-05-04 10:04 -37.58338 145.46385 6327 ft 99 kts 21°
2026-05-04 10:04 -37.57804 145.46911 6555 ft 98 kts 20°
2026-05-04 10:05 -37.57266 145.47445 6827 ft 99 kts 20°
2026-05-04 10:05 -37.56720 145.47983 7161 ft 99 kts 20°
2026-05-04 10:05 -37.56180 145.48518 7560 ft 100 kts 20°
2026-05-04 10:05 -37.55628 145.49065 7913 ft 101 kts 21°
2026-05-04 10:06 -37.55031 145.49646 8047 ft 122 kts 24°
2026-05-04 10:06 -37.54562 145.50106 8053 ft 134 kts 25°
2026-05-04 10:06 -37.53792 145.50869 8055 ft 146 kts 26°
2026-05-04 10:08 -37.48768 145.55846 8051 ft 151 kts 26°
2026-05-04 10:08 -37.47943 145.56662 8050 ft 152 kts 27°
2026-05-04 10:08 -37.47111 145.57485 8051 ft 152 kts 27°
2026-05-04 10:08 -37.46285 145.58303 8057 ft 150 kts 26°
2026-05-04 10:09 -37.45463 145.59112 8061 ft 150 kts 27°
2026-05-04 10:09 -37.44619 145.59943 8058 ft 152 kts 27°
2026-05-04 10:09 -37.43803 145.60750 8066 ft 153 kts 27°
2026-05-04 10:09 -37.42964 145.61577 8055 ft 153 kts 27°
2026-05-04 10:10 -37.42134 145.62396 8064 ft 149 kts 27°
2026-05-04 10:10 -37.41314 145.63200 8066 ft 151 kts 27°
2026-05-04 10:10 -37.40487 145.64014 8056 ft 150 kts 27°
2026-05-04 10:10 -37.39663 145.64826 8061 ft 151 kts 27°
2026-05-04 10:11 -37.38836 145.65647 8062 ft 148 kts 27°
2026-05-04 10:11 -37.38035 145.66434 8153 ft 141 kts 26°
2026-05-04 10:11 -37.37330 145.67133 8638 ft 119 kts 24°
2026-05-04 10:11 -37.36741 145.67719 9209 ft 100 kts 22°
2026-05-04 10:12 -37.36189 145.68254 9579 ft 101 kts 22°
2026-05-04 10:12 -37.35634 145.68798 9936 ft 102 kts 22°
2026-05-04 10:12 -37.35076 145.69345 10257 ft 102 kts 22°
2026-05-04 10:12 -37.34510 145.69898 10585 ft 104 kts 23°
2026-05-04 10:13 -37.33943 145.70456 10914 ft 104 kts 23°
2026-05-04 10:13 -37.33371 145.71017 11263 ft 105 kts 23°
2026-05-04 10:13 -37.32792 145.71585 11602 ft 106 kts 23°
2026-05-04 10:13 -37.32215 145.72152 11951 ft 107 kts 23°
2026-05-04 10:14 -37.31629 145.72727 12316 ft 107 kts 23°
2026-05-04 10:14 -37.31038 145.73307 12667 ft 108 kts 23°
2026-05-04 10:16 -37.25242 145.78986 13001 ft 179 kts 28°
2026-05-04 10:16 -37.24254 145.79955 13004 ft 181 kts 28°
2026-05-04 10:16 -37.23270 145.80923 13003 ft 180 kts 28°
2026-05-04 10:16 -37.22286 145.81890 13001 ft 180 kts 28°
2026-05-04 10:17 -37.21299 145.82856 13000 ft 179 kts 28°
2026-05-04 10:17 -37.20282 145.83718 12997 ft 172 kts 16°
2026-05-04 10:19 -37.12808 145.88231 13007 ft 171 kts 16°
2026-05-04 10:19 -37.11734 145.88883 13007 ft 172 kts 16°
2026-05-04 10:19 -37.10649 145.89538 13009 ft 173 kts 16°
2026-05-04 10:19 -37.09561 145.90194 13008 ft 174 kts 16°
2026-05-04 10:20 -37.08471 145.90851 13007 ft 174 kts 16°
2026-05-04 10:20 -37.07379 145.91508 13009 ft 174 kts 16°
2026-05-04 10:20 -37.06290 145.92166 13007 ft 174 kts 16°
2026-05-04 10:20 -37.05193 145.92827 13006 ft 175 kts 15°
2026-05-04 10:21 -37.04084 145.93493 13005 ft 174 kts 16°
2026-05-04 10:21 -37.02985 145.94155 13003 ft 175 kts 16°
2026-05-04 10:21 -37.01902 145.94781 13007 ft 170 kts 17°
2026-05-04 10:21 -37.00838 145.95451 13004 ft 171 kts 16°
2026-05-04 10:22 -36.98681 145.96746 13006 ft 173 kts 15°
2026-05-04 10:22 -36.97605 145.97390 13006 ft 173 kts 15°
2026-05-04 10:22 -36.96516 145.98048 13008 ft 173 kts 16°
2026-05-04 10:23 -36.95433 145.98703 13010 ft 172 kts 15°
2026-05-04 10:23 -36.94350 145.99346 13014 ft 173 kts 15°
2026-05-04 10:25 -36.86734 146.03914 13019 ft 175 kts 15°
2026-05-04 10:25 -36.85636 146.04572 13020 ft 174 kts 15°
2026-05-04 10:25 -36.84545 146.05228 13016 ft 174 kts 15°
2026-05-04 10:25 -36.83452 146.05879 13022 ft 174 kts 15°
2026-05-04 10:26 -36.82355 146.06534 13018 ft 175 kts 15°
2026-05-04 10:26 -36.81257 146.07194 13017 ft 176 kts 15°
2026-05-04 10:26 -36.80155 146.07852 13019 ft 176 kts 15°
2026-05-04 10:26 -36.79054 146.08511 13019 ft 176 kts 15°
2026-05-04 10:27 -36.77957 146.09163 13029 ft 174 kts 15°
2026-05-04 10:27 -36.76855 146.09819 13028 ft 175 kts 15°
2026-05-04 10:27 -36.75697 146.10513 13028 ft 175 kts 15°
2026-05-04 10:27 -36.74657 146.11136 13025 ft 175 kts 15°
2026-05-04 10:28 -36.73558 146.11791 13028 ft 175 kts 15°
2026-05-04 10:28 -36.72461 146.12444 13023 ft 175 kts 15°
2026-05-04 10:28 -36.71376 146.13093 13023 ft 175 kts 15°
2026-05-04 10:28 -36.70282 146.13753 13026 ft 175 kts 15°
2026-05-04 10:29 -36.69184 146.14400 13026 ft 174 kts 15°
2026-05-04 10:29 -36.68095 146.15047 13023 ft 174 kts 15°
2026-05-04 10:29 -36.67000 146.15702 13026 ft 174 kts 15°
2026-05-04 10:29 -36.65907 146.16354 13027 ft 174 kts 15°
2026-05-04 10:30 -36.64813 146.17006 13025 ft 174 kts 15°
2026-05-04 10:30 -36.63724 146.17654 13024 ft 174 kts 15°
2026-05-04 10:30 -36.62634 146.18303 13026 ft 173 kts 15°
2026-05-04 10:30 -36.61547 146.18950 13030 ft 173 kts 15°
2026-05-04 10:31 -36.60457 146.19597 13029 ft 174 kts 15°
2026-05-04 10:31 -36.59366 146.20245 13028 ft 174 kts 15°
2026-05-04 10:32 -36.52842 146.24118 13028 ft 173 kts 16°
2026-05-04 10:33 -36.51770 146.24755 13028 ft 173 kts 16°
2026-05-04 10:33 -36.50686 146.25398 13029 ft 173 kts 16°
2026-05-04 10:33 -36.49593 146.26047 13031 ft 174 kts 16°
2026-05-04 10:33 -36.48498 146.26695 13030 ft 174 kts 16°
2026-05-04 10:34 -36.47406 146.27342 13033 ft 174 kts 16°
2026-05-04 10:34 -36.46312 146.27990 13033 ft 174 kts 16°
2026-05-04 10:34 -36.45219 146.28637 13032 ft 174 kts 16°
2026-05-04 10:34 -36.44123 146.29287 13028 ft 174 kts 16°
2026-05-04 10:35 -36.43034 146.29941 13035 ft 175 kts 19°
2026-05-04 10:35 -36.42039 146.30872 13033 ft 184 kts 35°
2026-05-04 10:35 -36.41251 146.32148 13035 ft 191 kts 47°
2026-05-04 10:35 -36.40520 146.33526 13028 ft 191 kts 47°
2026-05-04 10:36 -36.39792 146.34901 13035 ft 190 kts 47°
2026-05-04 10:36 -36.39066 146.36273 13031 ft 190 kts 47°
2026-05-04 10:36 -36.38339 146.37646 13034 ft 190 kts 47°
2026-05-04 10:36 -36.37613 146.39017 13031 ft 190 kts 47°
2026-05-04 10:37 -36.36885 146.40388 13035 ft 190 kts 47°
2026-05-04 10:37 -36.36157 146.41759 13036 ft 190 kts 47°
2026-05-04 10:37 -36.35432 146.43125 13031 ft 190 kts 47°
2026-05-04 10:37 -36.34705 146.44492 13037 ft 190 kts 47°
2026-05-04 10:39 -36.30350 146.52678 13031 ft 190 kts 47°
2026-05-04 10:39 -36.29624 146.54041 13035 ft 189 kts 47°
2026-05-04 10:39 -36.28898 146.55402 13037 ft 190 kts 47°
2026-05-04 10:40 -36.28172 146.56764 13038 ft 189 kts 47°
2026-05-04 10:40 -36.27458 146.58103 13046 ft 188 kts 47°
2026-05-04 10:40 -36.26969 146.59019 13041 ft 189 kts 47°
2026-05-04 10:40 -36.26245 146.60376 13041 ft 189 kts 47°
2026-05-04 10:41 -36.25280 146.62185 13044 ft 189 kts 47°
2026-05-04 10:41 -36.24554 146.63544 13043 ft 189 kts 47°
2026-05-04 10:41 -36.24064 146.64461 13043 ft 189 kts 47°
2026-05-04 10:41 -36.23339 146.65816 13044 ft 189 kts 47°
2026-05-04 10:42 -36.22598 146.67202 13044 ft 189 kts 47°
2026-05-04 10:42 -36.21886 146.68532 13045 ft 188 kts 47°
2026-05-04 10:42 -36.21163 146.69882 13042 ft 188 kts 47°
2026-05-04 10:42 -36.20439 146.71234 13043 ft 188 kts 47°
2026-05-04 10:43 -36.19718 146.72580 13048 ft 188 kts 47°
2026-05-04 10:44 -36.14654 146.82004 13050 ft 187 kts 46°
2026-05-04 10:45 -36.13936 146.83345 13050 ft 187 kts 46°
2026-05-04 10:45 -36.13218 146.84684 13052 ft 187 kts 46°
2026-05-04 10:45 -36.12496 146.86030 13050 ft 187 kts 46°
2026-05-04 10:45 -36.11776 146.87371 13050 ft 187 kts 46°
2026-05-04 10:46 -36.11058 146.88705 13052 ft 186 kts 46°
2026-05-04 10:46 -36.10337 146.90043 13048 ft 186 kts 46°
2026-05-04 10:46 -36.09621 146.91374 13048 ft 186 kts 46°
2026-05-04 10:46 -36.08905 146.92704 13056 ft 186 kts 46°
2026-05-04 10:47 -36.08188 146.94035 13052 ft 185 kts 46°
2026-05-04 10:47 -36.07480 146.95343 13049 ft 185 kts 45°
2026-05-04 10:47 -36.06632 146.96488 13049 ft 177 kts 30°
2026-05-04 10:47 -36.05613 146.97272 13059 ft 170 kts 16°
2026-05-04 10:49 -35.98228 147.01413 13062 ft 160 kts 16°
2026-05-04 10:49 -35.97214 147.01980 13059 ft 159 kts 16°
2026-05-04 10:50 -35.96204 147.02545 13060 ft 159 kts 16°
2026-05-04 10:51 -35.89201 147.06459 13068 ft 157 kts 16°
2026-05-04 10:52 -35.88203 147.07016 13068 ft 157 kts 16°
2026-05-04 10:52 -35.87208 147.07572 13065 ft 157 kts 16°
2026-05-04 10:52 -35.86214 147.08126 13064 ft 156 kts 17°
2026-05-04 10:54 -35.79335 147.11961 13068 ft 154 kts 16°
2026-05-04 10:54 -35.78354 147.12507 13070 ft 155 kts 16°
2026-05-04 10:56 -35.71208 147.16481 13073 ft 163 kts 17°
2026-05-04 10:56 -35.70169 147.17059 13003 ft 164 kts 17°
2026-05-04 10:56 -35.69132 147.17637 12873 ft 163 kts 17°
2026-05-04 10:57 -35.68099 147.18210 12736 ft 162 kts 17°
2026-05-04 10:57 -35.67071 147.18786 12609 ft 162 kts 17°
2026-05-04 10:57 -35.66042 147.19356 12484 ft 162 kts 16°
2026-05-04 10:57 -35.65017 147.19920 12355 ft 160 kts 16°
2026-05-04 10:58 -35.64012 147.20477 12223 ft 155 kts 16°
2026-05-04 10:58 -35.63047 147.21014 12097 ft 151 kts 16°
2026-05-04 10:58 -35.62097 147.21541 11966 ft 148 kts 16°
2026-05-04 10:58 -35.61163 147.22058 11841 ft 146 kts 16°
2026-05-04 10:59 -35.60240 147.22568 11719 ft 145 kts 15°
2026-05-04 10:59 -35.59325 147.23074 11592 ft 144 kts 15°
2026-05-04 10:59 -35.58415 147.23578 11470 ft 143 kts 16°
2026-05-04 10:59 -35.57518 147.24074 11344 ft 143 kts 15°
2026-05-04 11:00 -35.56612 147.24575 11228 ft 142 kts 16°
2026-05-04 11:01 -35.49926 147.28270 10381 ft 153 kts 16°
2026-05-04 11:02 -35.48955 147.28808 10262 ft 153 kts 16°
2026-05-04 11:02 -35.47998 147.29336 10145 ft 152 kts 16°
2026-05-04 11:05 -35.34760 147.36271 8336 ft 145 kts 15°
2026-05-04 11:06 -35.33838 147.36788 8132 ft 146 kts 16°
2026-05-04 11:06 -35.32914 147.37312 7934 ft 146 kts 16°
2026-05-04 11:06 -35.31996 147.37835 7736 ft 145 kts 16°
2026-05-04 11:06 -35.31093 147.38349 7539 ft 145 kts 16°
2026-05-04 11:08 -35.24693 147.41923 6177 ft 146 kts 16°
2026-05-04 11:10 -35.18519 147.45365 4777 ft 136 kts 15°
2026-05-04 11:12 -35.16529 147.43760 3867 ft 118 kts 266°
2026-05-04 11:12 -35.16778 147.42798 3813 ft 119 kts 265°
2026-05-04 11:12 -35.17123 147.41940 3960 ft 119 kts 233°
2026-05-04 11:12 -35.18050 147.41646 3630 ft 162 kts 174°
2026-05-04 11:13 -35.19063 147.42265 3433 ft 163 kts 131°
2026-05-04 11:13 -35.19469 147.43429 3323 ft 142 kts 76°
2026-05-04 11:13 -35.19114 147.44481 3085 ft 131 kts 43°
2026-05-04 11:13 -35.18589 147.45369 2948 ft 127 kts 42°
2026-05-04 11:14 -35.18043 147.46169 2825 ft 119 kts 30°
2026-05-04 11:14 -35.17338 147.46671 2666 ft 117 kts 16°
2026-05-04 11:14 -35.16604 147.46850 2704 ft 100 kts 348°
2026-05-04 11:16 -35.16179 147.41854 3204 ft 107 kts 290°
2026-05-04 11:16 -35.15664 147.41396 3079 ft 122 kts 11°
2026-05-04 11:16 -35.15332 147.42002 3095 ft 145 kts 68°
2026-05-04 11:17 -35.15385 147.43306 3067 ft 149 kts 80°
2026-05-04 11:17 -35.15378 147.44544 3130 ft 143 kts 80°
2026-05-04 11:19 -35.17808 147.42832 3036 ft 120 kts 278°
2026-05-04 11:19 -35.17854 147.41823 3079 ft 118 kts 276°
2026-05-04 11:19 -35.17867 147.40833 3090 ft 112 kts 294°
2026-05-04 11:19 -35.17287 147.40423 3072 ft 114 kts 13°
2026-05-04 11:20 -35.16904 147.41294 3095 ft 139 kts 83°
2026-05-04 11:20 -35.16975 147.42494 3124 ft 135 kts 71°
2026-05-04 11:20 -35.16762 147.43636 3046 ft 140 kts 64°
2026-05-04 11:20 -35.16622 147.44861 2965 ft 151 kts 79°
2026-05-04 11:22 -35.18817 147.43849 3164 ft 114 kts 276°
2026-05-04 11:22 -35.18840 147.42904 3212 ft 112 kts 278°
2026-05-04 11:23 -35.18556 147.42124 3243 ft 103 kts 331°
2026-05-04 11:23 -35.17838 147.42183 3236 ft 118 kts 24°
2026-05-04 11:24 -35.16734 147.49022 3317 ft 135 kts 62°
2026-05-04 11:25 -35.16446 147.50153 3196 ft 146 kts 68°
2026-05-04 11:25 -35.16182 147.51332 3130 ft 140 kts 62°
2026-05-04 11:25 -35.15857 147.52462 3001 ft 140 kts 60°
2026-05-04 11:26 -35.15224 147.54706 2792 ft 139 kts 64°
2026-05-04 11:27 -35.13499 147.61220 2809 ft 126 kts 56°
2026-05-04 11:28 -35.12917 147.61829 2815 ft 107 kts
2026-05-04 11:28 -35.12285 147.61450 2744 ft 109 kts 301°
2026-05-04 11:28 -35.12292 147.60515 2735 ft 116 kts 262°
2026-05-04 11:28 -35.12639 147.59603 2729 ft 118 kts 257°
2026-05-04 11:29 -35.12949 147.58693 2775 ft 115 kts 259°
2026-05-04 11:29 -35.13247 147.57757 2751 ft 119 kts 261°
2026-05-04 11:29 -35.13510 147.56800 2698 ft 122 kts 263°
2026-05-04 11:29 -35.13738 147.55778 2576 ft 118 kts 265°
2026-05-04 11:31 -35.15139 147.50663 1615 ft 89 kts 264°
2026-05-04 11:33 -35.16602 147.46382 1104 ft 82 kts 241°
2026-05-04 11:33 -35.16933 147.45836 1513 ft 80 kts 239°
2026-05-04 11:33 -35.17269 147.45311 1943 ft 77 kts 246°
2026-05-04 11:34 -35.17588 147.44751 2275 ft 79 kts 260°
2026-05-04 11:34 -35.17886 147.44204 2722 ft 79 kts 250°
2026-05-04 11:34 -35.18215 147.43681 3100 ft 81 kts 248°
2026-05-04 11:34 -35.18558 147.43035 3308 ft 98 kts 254°
2026-05-04 11:35 -35.18895 147.42356 3730 ft 95 kts 250°
2026-05-04 11:35 -35.19286 147.41665 4090 ft 100 kts 246°
2026-05-04 11:35 -35.19423 147.40967 4341 ft 83 kts 312°
2026-05-04 11:35 -35.18831 147.41105 4406 ft 116 kts 39°
2026-05-04 11:36 -35.18511 147.42122 4477 ft 132 kts 65°
2026-05-04 11:36 -35.18225 147.43132 4643 ft 122 kts 57°
2026-05-04 11:36 -35.17860 147.44058 4689 ft 122 kts 54°
2026-05-04 11:36 -35.17491 147.45008 4617 ft 125 kts 52°
2026-05-04 11:37 -35.17095 147.45951 4612 ft 124 kts 51°
2026-05-04 11:37 -35.16668 147.46896 4531 ft 126 kts 49°
2026-05-04 11:37 -35.16495 147.47959 4451 ft 141 kts 102°
2026-05-04 11:37 -35.17176 147.48726 4400 ft 134 kts 177°
2026-05-04 11:38 -35.17886 147.48423 4445 ft 95 kts 249°
2026-05-04 11:38 -35.18021 147.47717 4413 ft 81 kts 276°
2026-05-04 11:38 -35.18060 147.47034 4366 ft 81 kts 276°
2026-05-04 11:38 -35.18122 147.46364 4365 ft 79 kts 275°
2026-05-04 11:39 -35.18172 147.45648 4207 ft 90 kts 277°
2026-05-04 11:39 -35.18220 147.44915 4202 ft 83 kts 275°
2026-05-04 11:40 -35.16700 147.47488 4168 ft 98 kts 59°
2026-05-04 11:41 -35.16485 147.48277 4175 ft 99 kts 59°
2026-05-04 11:41 -35.16257 147.49107 4136 ft 105 kts 63°
2026-05-04 11:41 -35.16042 147.49939 4182 ft 99 kts 58°
2026-05-04 11:41 -35.15861 147.50749 4225 ft 97 kts 61°
2026-05-04 11:42 -35.15633 147.51552 4152 ft 102 kts 60°
2026-05-04 11:42 -35.15387 147.52390 3990 ft 108 kts 60°
2026-05-04 11:42 -35.15124 147.53275 3731 ft 113 kts 59°
2026-05-04 11:42 -35.14877 147.54181 3565 ft 113 kts 64°
2026-05-04 11:43 -35.14652 147.55075 3483 ft 108 kts 61°
2026-05-04 11:43 -35.14425 147.55907 3481 ft 99 kts 59°
2026-05-04 11:43 -35.14197 147.56715 3365 ft 103 kts 58°
2026-05-04 11:43 -35.13936 147.57524 3289 ft 101 kts 57°
2026-05-04 11:44 -35.13685 147.58330 3160 ft 101 kts 56°
2026-05-04 11:44 -35.13423 147.59118 3081 ft 98 kts 57°
2026-05-04 11:44 -35.13170 147.59929 2957 ft 105 kts 63°
2026-05-04 11:44 -35.12971 147.60751 2924 ft 102 kts 65°
2026-05-04 11:45 -35.12780 147.61599 2837 ft 102 kts 64°
2026-05-04 11:45 -35.12372 147.62125 2779 ft 79 kts
2026-05-04 11:45 -35.11908 147.61980 2723 ft 69 kts 319°
2026-05-04 11:45 -35.11594 147.61563 2683 ft 66 kts 312°
2026-05-04 11:46 -35.11256 147.61170 2682 ft 64 kts 316°
2026-05-04 11:46 -35.11086 147.60723 2703 ft 64 kts 267°
2026-05-04 11:46 -35.11356 147.60191 2659 ft 79 kts 251°
2026-05-04 11:46 -35.11594 147.59609 2665 ft 76 kts 257°
2026-05-04 11:47 -35.11886 147.59063 2666 ft 76 kts 249°
2026-05-04 11:47 -35.12167 147.58499 2623 ft 79 kts 253°
2026-05-04 11:47 -35.12451 147.57918 2602 ft 80 kts 251°
2026-05-04 11:47 -35.12731 147.57333 2641 ft 79 kts 252°
2026-05-04 11:48 -35.12984 147.56737 2693 ft 79 kts 253°
2026-05-04 11:48 -35.13234 147.56107 2634 ft 85 kts 255°
2026-05-04 11:48 -35.13483 147.55450 2601 ft 85 kts 256°
2026-05-04 11:48 -35.13731 147.54789 2555 ft 86 kts 256°
2026-05-04 11:49 -35.14012 147.53911 1964 ft 119 kts 255°
2026-05-04 11:49 -35.14284 147.53049 1930 ft 116 kts 256°
2026-05-04 11:49 -35.14603 147.51992 1877 ft 138 kts 256°
2026-05-04 11:49 -35.14906 147.50978 1691 ft 116 kts 255°
2026-05-04 11:50 -35.15164 147.50141 1442 ft 99 kts 254°
2026-05-04 11:50 -35.15392 147.49362 1164 ft 95 kts 252°
2026-05-04 11:50 -35.15623 147.48624 947 ft 90 kts 244°
2026-05-04 11:50 -35.15932 147.47942 874 ft 82 kts 248°
2026-05-04 11:51 -35.16152 147.47345 710 ft 67 kts 264°
2026-05-04 11:51 -35.16260 147.47040 710 ft 19 kts 252°
2026-05-04 11:51 -35.16230 147.46963 710 ft 13 kts 331°
2026-05-04 11:51 -35.16150 147.46908 711 ft 9 kts 299°
2026-05-04 11:52 -35.16158 147.46863 711 ft 14 kts 243°